Regional Weather Roundup
Issued by NWS Newport/Morehead, NC

Current Version | Previous Version | Graphics & Text | Print | Product List | Glossary Off
Versions: 1 2 3 4 5 6 7 8 9 10 11 12 13 14 15 16 17 18 19 20 21 22 23 24 25 26 27 28 29 30 31 32 33 34 35 36 37 38 39 40 41 42 43 44 45 46 47 48 49 50

000
ASUS42 KMHX 170913
RWRMHX
WEATHER ROUNDUP FOR EASTERN NORTH CAROLINA
NATIONAL WEATHER SERVICE NEWPORT/MOREHEAD CITY NC
500 AM EDT TUE OCT 17 2017

NOTE: "FAIR" INDICATES FEW OR NO CLOUDS BELOW 12,000 FEET
WITH NO SIGNIFICANT WEATHER AND/OR OBSTRUCTIONS TO VISIBILITY

NCZ015>017-031-032-045>047-102-103-171000-
NORTH COAST

CITY           SKY/WX    TMP DP  RH WIND       PRES   REMARKS
EDENTON        CLEAR     49  45  85 CALM      30.22R
ELIZABETH CITY CLEAR     54  47  77 N12       30.20R
KITTY HAWK     PTSUNNY   60  43  54 N12G20    30.16R
MANTEO         CLOUDY   N/A N/A N/A NE15G26   30.17R

$$

NCZ045>047-081-094-103-104-171000-
CENTRAL COAST

CITY           SKY/WX    TMP DP  RH WIND       PRES   REMARKS
FRISCO         PTCLDY    62  48  60 NE14G29   30.14R

$$

NCZ095-097-098-100-101-171000-
SOUTHERN COAST

CITY           SKY/WX    TMP DP  RH WIND       PRES   REMARKS
BEAUFORT       CLEAR     58  48  69 N14G22    30.15R
CEDAR ISLAND   NOT AVBL
JACKSONVILLE   CLOUDY    51  45  79 N12       30.18R
PINEY ISLAND     N/A    N/A N/A N/A N17G25    30.16R
WILMINGTON     CLEAR     53  43  68 N9        30.18R


$$

NCZ011>013-027>030-043-044-078>080-089-090>093-098-171000-
COASTAL PLAIN

CITY           SKY/WX    TMP DP  RH WIND       PRES   REMARKS
AHOSKIE        CLEAR     45  40  83 N3        30.24R
CLINTON        PTCLDY    50  45  82 N6        30.23R
ELIZABETHTOWN  NOT AVBL
GOLDSBORO      PTCLDY    50  41  70 N8        30.21R
GREENVILLE     CLOUDY    45  41  87 N3        30.23R
HAVELOCK       NOT AVBL
KENANSVILLE    MOCLDY    50  43  76 N9        30.22R
KINSTON        NOT AVBL
NEW BERN       MOCLDY    51  46  83 N9        30.21R
RICHLANDS      CLOUDY    49  43  80 N7        30.21R
ROCKY MOUNT    CLEAR     48  42  80 N8        30.25R
WASHINGTON     CLOUDY    48  43  81 N7        30.22R
WHITEVILLE     PTCLDY    52  46  79 N6        30.19S

$$

AMZ130-135-150-152-154-156-158-170-250-252-270-ANZ085-086-088-633-658-670-171000-
MARINE OBSERVATIONS

STATION/POSITION TIME  TEMP    WIND        PRES    WAVE   SWELL
                       AIR SEA DIR/SP/G            HT/PER HT/PER
                 (UTC) (F)     (DEG/KT/KT) (MB)    (FT/S) (FT/S)
CHESAPEAKE LIGHT NOT AVBL
64 E VA BEACH    0850   61 68   20/ 23/ 31 1021.1    9/ 7   2/11
DUCK             0842   62 69   20/ 24/ 30 1021.2
2 E DUCK         0900      71                N/A     7/ 7   2/13
OREGON INLET     0842   62 70   20/ 20/ 26 1021.0
13E OREGON INLT  0848      72                N/A    10/ 8   3/13
HATTERAS CG      0842   63 71   30/ 18/ 27 1020.4
DIAMOND BUOY     0850   66 81   20/ 27/ 35 1018.7    9/ 8   3/11
CAPE LOOKOUT     0900   61      10/ 22/ 24 1020.2
BEAUFORT LAB     0842   60 73   10/ 14/ 18 1021.1
30 SE NEW RVR IN 0808   66      40/ 25/ 33 1019.2
30 SE NEW RVR IN NOT AVBL
27 SE WRIGHTSVLE 0808   65 77   60/ 23/ 33 1019.1
5 SE WRIGHTSVLE  0808   62 76   40/ 17/ 37 1020.8
225 S CAPE HAT   0850   75 80   20/ 21/ 27 1013.1    4/10   3/10
41 SE CHARLESTON 0850   69 81   30/ 25/ 31 1018.6   10/ 8

$$




USA.gov is the U.S. government's official web portal to all federal, state and local government web resources and services.